Location: Castrojimeno
(41.3966°N, 3.8473°W)
Time: 21:34:38
(UTC+00:00)

Cosmos 2297 Rocket - Pass Details

Date: 15 May 2026
Orbit: 838 x 842 km, 71.0° (Epoch: 10 June)

Event Time Altitude Azimuth Distance (km) Brightness Sun altitude
Exits shadow 23:28:04 46° 70° (ENE) 1,110 2.8 -28.7°
Drops below altitude 10° 23:32:27 10° 33° (NNE) 2,461 5.1 -28.9°
Sets 23:34:57 0° 29° (NNE) 3,400 6.1 -28.9°
